Погода в Макаракском

Россия / Кемеровская область (Кузбасс)     55°35′49″N   88°02′49″E
темп.,
°C
ветер,
м/с
пор.,
м/с
влажн.,
%
обл.,
%
осадки,
мм/ч
давл.,
гПа
погр.,
м
9 мая, вс
вс901:00+5ссз2476100 0.4 1016365
04:00+3сз257892 0.1 1017384
07:00+2ссз247995 0.1 1018542
10:00+5ссз3462100 0.1 10181372
13:00+5с3454100 0.1 10191401
16:00+7ссз3448100 0.1 10191693
19:00+7с455292 0.1 10191496
22:00+3с389050 0.1 1022448
10 мая, пн
пн1001:00+1св2691100 0.1 1023289
04:00+2всв268566 0.0 1023486
07:00+3всв36785 0.0 1024560
10:00+7всв45555 0.0 10231047
13:00+11всв45425 0.0 10221578
16:00+13всв45380 0.0 10211897
19:00+12всв46475 0.0 10201619
22:00+7всв412654 0.0 1021426
11 мая, вт
вт1101:00+5всв210745 0.0 1020273
04:00+3всв22842 0.0 101920
07:00+6св310775 0.0 1018399
10:00+11всв595463 0.0 10171266
13:00+14св573991 0.0 10152433
16:00+14ссв563896 0.0 10152113
19:00+11ссв475842 0.2 10161129
22:00+7ссв3108023 0.2 1018441
12 мая, ср
ср1201:00+6с278894 0.3 1018315
04:00+4с239117 0.0 101897
07:00+5ссв248378 0.0 1019286
10:00+8ссв357585 0.0 1018714
13:00+8св4684100 0.3 1019813
16:00+9всв357795 0.3 1019827
19:00+10св2464100 0.3 1019997
22:00+6в118559 0.1 102015
13 мая, чт
чт1301:00+6в1184100 0.1 102010
04:00+6в118483 0.0 102010
07:00+6в11776 0.0 102092
10:00+12всв11435 0.0 10191639
13:00+16зсз123449 0.0 10172123
16:00+16юз333469 0.0 10152371
19:00+13юз354756 0.0 1015925
22:00+8ююз39645 0.0 1015236